Regional Weather Roundup
Issued by NWS

Home | Current Version | Previous Version | Graphics & Text | Print | Product List | Glossary On
Versions: 1 2 3 4 5 6 7 8 9 10 11 12 13 14 15 16 17 18 19 20 21 22 23 24 25 26 27 28 29 30 31 32 33 34 35 36 37 38 39 40 41 42 43 44 45 46 47 48 49 50
672
ASUS45 KCYS 261410
RWRWY

WYOMING REGIONAL WEATHER ROUNDUP
NATIONAL WEATHER SERVICE CHEYENNE WY
800 AM MDT MON SEP 26 2016

NOTE:  "FAIR" INDICATES FEW OR NO CLOUDS BELOW 12,000 FEET
WITH NO SIGNIFICANT WEATHER AND/OR OBSTRUCTIONS TO VISIBILITY.

WYZ001-261500-
YELLOWSTONE NATIONAL PARK

CITY           SKY/WX    TMP DP  RH WIND       PRES   REMARKS
LK YELLOWSTONE   N/A     29  28  96 CALM      30.57R
W YELLOWSTONE  NOT AVBL

$$
WYZ002>013-054>058-071-098>099-261500-
NORTHERN WYOMING

CITY           SKY/WX    TMP DP  RH WIND       PRES   REMARKS
JACKSON        CLEAR     30  30 100 CALM      30.54R
CODY           FAIR      43  39  87 S6        30.42S
GREYBULL       FAIR      42  41  96 SE5       30.40R
WORLAND        FAIR      45  42  89 S5        30.39S
SHERIDAN       MOCLDY    54  43  66 W8        30.36R
BUFFALO        FAIR      54  39  57 W8        30.39R
GILLETTE       CLOUDY    51  41  68 W14       30.34S
HULETT         FAIR      50  37  62 SW10      30.34S
NEWCASTLE      FAIR      43  36  75 N6        30.37R

$$
WYZ014>020-022>026-101>103-261500-
CENTRAL WYOMING

CITY           SKY/WX    TMP DP  RH WIND       PRES   REMARKS
BIG PINEY      FAIR      39  34  82 CALM      30.51R
PINEDALE       FAIR      34  34 100 MISG      30.52R
DUBOIS         FAIR      43  34  70 NW10      30.48R
LANDER         FAIR      45  38  76 W6        30.43R
RIVERTON       FAIR      44  44 100 NW3       30.44R
CASPER         FAIR      42  39  89 W5        30.42R
DOUGLAS        FAIR      42  38  85 NW5       30.42R

$$
WYZ021-027>030-104>119-261500-
SOUTHERN WYOMING

CITY           SKY/WX    TMP DP  RH WIND       PRES   REMARKS
EVANSTON       FAIR      42  32  67 S5        30.52R
FORT BRIDGER   FAIR      46  35  67 W8        30.53S
ROCK SPRINGS   FAIR      43  36  76 S3        30.50R
DIXON          FAIR      39  32  76 E8        30.54S WCI  34
RAWLINS        FAIR      38  34  85 CALM      30.50R
SARATOGA       FAIR      41  32  70 SE7       30.51R
LARAMIE        FAIR      36  30  79 SE6       30.48S WCI  31
CHEYENNE       FAIR      47  34  60 W6        30.44S
TORRINGTON     FAIR      39  38  96 S3        30.37R
PINE BLUFFS    FAIR      41  36  81 W3        30.41S

$$




USA.gov is the U.S. government's official web portal to all federal, state and local government web resources and services.